www.pogodaiklimat.ru
ПОГОДА в Буэнос-Айресе

Архив погоды в Буэнос-Айресе (Аргентина)

Время
(UTC), дата
07 6.04
08 6.04
09 6.04
10 6.04
11 6.04
12 6.04
13 6.04
14 6.04
15 6.04
16 6.04
17 6.04
18 6.04
19 6.04
20 6.04
21 6.04
22 6.04
23 6.04
00 7.04
01 7.04
02 7.04
03 7.04
04 7.04
05 7.04
06 7.04
07 7.04
08 7.04
09 7.04
10 7.04
11 7.04
12 7.04
13 7.04
14 7.04
15 7.04
16 7.04
17 7.04
18 7.04
19 7.04
20 7.04
21 7.04
22 7.04
23 7.04
00 8.04
01 8.04
02 8.04
03 8.04
04 8.04
05 8.04
06 8.04
07 8.04
08 8.04
09 8.04
10 8.04
11 8.04
12 8.04
13 8.04
14 8.04
15 8.04
16 8.04
17 8.04
18 8.04
19 8.04
20 8.04
21 8.04
22 8.04
23 8.04
00 9.04
01 9.04
02 9.04
03 9.04
04 9.04
05 9.04
06 9.04
07 9.04
08 9.04
09 9.04
10 9.04
11 9.04
12 9.04
13 9.04
14 9.04
15 9.04
16 9.04
17 9.04
18 9.04
19 9.04
20 9.04
21 9.04
22 9.04
23 9.04
00 10.04
01 10.04
02 10.04
03 10.04
04 10.04
05 10.04
06 10.04
07 10.04
08 10.04
09 10.04
10 10.04
11 10.04
12 10.04
13 10.04
14 10.04
15 10.04
16 10.04
17 10.04
18 10.04
19 10.04
20 10.04
21 10.04
22 10.04
23 10.04
00 11.04
01 11.04
02 11.04
03 11.04
04 11.04
05 11.04
06 11.04
07 11.04
08 11.04
09 11.04
10 11.04
11 11.04
12 11.04
13 11.04
14 11.04
15 11.04
16 11.04
17 11.04
18 11.04
19 11.04
20 11.04
21 11.04
22 11.04
23 11.04
00 12.04
01 12.04
02 12.04
03 12.04
04 12.04
05 12.04
06 12.04
07 12.04
08 12.04
09 12.04
11 12.04
12 12.04
13 12.04
14 12.04
15 12.04
16 12.04
17 12.04
18 12.04
19 12.04
20 12.04
21 12.04
22 12.04
23 12.04
00 13.04
01 13.04
02 13.04
03 13.04
04 13.04
05 13.04
06 13.04
07 13.04
08 13.04
Ветер
(напр.,м/с)
Видим. Явления Облачность Т
(С)
Тd
(С)
f
(%)
Тe
(С)
Тes
(С)
Комфортность P
(гПа)
Po
(гПа)
Тmin
(С)
Tmax
(С)
R
(мм)
R24
(мм)
S
(см)
штиль 0 9000 м дымка ясно +17.2 +15.2 88 +17 +17 1018.1 1015.2
С 1 9000 м дымка ясно +16.5 +14.8 90 +18 +18 1017.7 1014.8
С 2 9000 м дымка ясно +16.2 +15.0 93 +16 +16 1017.8 1014.8
СВ 2 9000 м дымка ясно +16.2 +14.8 91 +16 +16 1017.8 1014.8
С 3 10 км ясно +18.0 +15.1 83 +18 +19 1017.7 1014.6
С 3 10 км ясно +21.3 +14.9 67 +24 +27 комфорт 1018.0 1015.0 +15.6 +21.3
С 5 10 км ясно +22.6 +13.8 58 +26 +29 жарко 1018.1 1015.2
С 4 10 км 1/0
[Cs]
+23.9 +13.8 53 +26 +32 жарко 1018.0 1015.2
С 4 10 км 3/0
[Ci sp]
+24.4 +13.4 50 +27 +34 жарко 1017.5 1014.6
С 4 10 км 9/0
[Ac trans Cs]
+24.3 +13.3 50 +26 +33 жарко 1017.6 1014.6
С 4 10 км 9/0
[Cs]
+24.5 +12.7 48 +26 +33 жарко 1017.4 1014.5
С 3 10 км 10/0
[Cs]
+24.4 +12.3 47 +26 +32 жарко 1016.7 1013.8
С 3 10 км 9/0
[Ac As Cs]
+24.3 +12.2 47 +26 +29 жарко 1016.8 1013.8
С 4 10 км 9/0
[Ac As Cs]
+23.9 +13.4 52 +26 +27 жарко 1016.2 1013.3
С 4 10 км 8/0
[Ac cast Cs]
+23.2 +13.7 55 +27 +27 душно 1015.5 1012.5
С 3 10 км 9/0
[Ac As Cs]
+22.4 +14.5 61 +26 +26 жарко 1015.8 1012.8
С 1 10 км 4/0
[Cs]
+22.0 +13.8 60 +25 +25 комфорт 1016.2 1013.2
СВ 2 10 км 4/0
[Cs]
+21.7 +14.5 64 +25 +25 комфорт 1015.9 1013.0 +21.3 +25.0
СВ 2 10 км 5/0
[Ac trans Cs]
+21.6 +14.5 64 +25 +25 комфорт 1016.3 1013.4
штиль 0 10 км 5/0
[Cs]
+21.4 +15.4 69 +25 +25 комфорт 1016.6 1013.7
ЮВ 1 10 км 6/0
[Cs]
+19.8 +16.2 80 +23 +23 комфорт 1016.7 1013.8
штиль 0 10 км 6/0
[Cs]
+19.5 +16.4 82 +21 +21 комфорт 1017.0 1014.1
В 2 10 км 6/0
[Cs]
+18.4 +15.2 82 +20 +20 1016.3 1013.4
СВ 2 10 км 8/0
[Ac trans Cs]
+19.2 +15.0 77 +21 +21 комфорт 1016.1 1013.2
СВ 2 10 км 8/0
[Ac trans Cs]
+19.5 +15.7 79 +22 +22 комфорт 1015.5 1012.6
штиль 0 10 км ясно +18.8 +16.8 88 +20 +20 1015.6 1012.8
штиль 0 10 км ясно +17.6 +16.1 91 +18 +18 1016.2 1013.3
В 1 10 км ясно +17.2 +15.9 92 +19 +19 1016.4 1013.4
СВ 1 10 км ясно +17.4 +15.9 91 +18 +19 1016.5 1013.6
С 2 10 км 4/4 600 м
[Sc]
+20.6 +16.9 79 +25 +26 комфорт 1016.6 1013.7 +16.5 +21.7
С 3 10 км 4/4 600 м
[Sc]
+22.6 +17.1 71 +27 +30 душно 1017.0 1014.1
СВ 1 10 км 1/1 750 м
[Sc]
+23.1 +16.8 68 +28 +37 душно 1016.7 1013.8
С 1 10 км ясно +24.3 +16.8 63 +28 +42 душно 1016.7 1013.8
В 2 10 км ясно +24.9 +16.2 58 +28 +40 жарко 1016.4 1013.6
СВ 3 10 км ясно +25.8 +12.0 42 +27 +36 жарко 1015.9 1013.0
С 3 10 км ясно +25.4 +13.2 47 +27 +35 жарко 1015.7 1012.8
СВ 2 10 км ясно +25.6 +13.3 46 +28 +33 жарко 1015.1 1012.2
С 1 10 км ясно +25.1 +11.7 43 +27 +29 жарко 1014.7 1011.8
В 2 10 км ясно +23.6 +13.8 54 +26 +26 жарко 1014.7 1011.8
В 1 10 км ясно +22.3 +15.2 64 +26 +26 жарко 1014.9 1012.0
В 1 10 км ясно +21.1 +16.4 75 +25 +25 комфорт 1015.5 1012.5
В 1 10 км ясно +19.9 +16.1 79 +23 +23 комфорт 1015.8 1012.9 +19.4 +25.8
В 2 10 км ясно +20.0 +17.3 84 +24 +24 комфорт 1015.9 1013.0
ЮВ 1 10 км ясно +20.1 +17.7 86 +24 +24 комфорт 1015.9 1013.0
В 1 10 км ясно +20.3 +18.1 87 +25 +25 комфорт 1015.6 1012.8
штиль 0 9000 м дымка ясно +19.6 +17.7 89 +22 +22 комфорт 1015.1 1012.2
СВ 1 9000 м дымка ясно +18.7 +17.4 92 +21 +21 комфорт 1015.1 1012.2
СВ 1 9000 м дымка ясно +18.5 +17.4 93 +21 +21 комфорт 1015.0 1012.1
СВ 2 9000 м дымка ясно +18.3 +17.0 92 +20 +20 1014.6 1011.7
СВ 2 9000 м дымка ясно +19.2 +17.6 90 +22 +22 комфорт 1014.4 1011.4
СВ 3 10 км 3/3 600 м
[Sc]
+20.1 +17.9 87 +23 +23 комфорт 1014.4 1011.4
С 2 10 км 6/6 540 м
[St]
+19.7 +17.8 89 +23 +23 комфорт 1014.7 1011.8
С 1 10 км 1/1 450 м
[St Ci fib]
+20.0 +18.1 89 +25 +25 комфорт 1014.6 1011.7
СВ 2 10 км 9/9 540 м
[St]
+20.8 +18.8 88 +26 +26 душно 1015.1 1012.2 +18.3 +20.8
С 5 10 км 9/9 570 м
[St]
+21.0 +18.5 86 +25 +26 комфорт 1015.1 1012.2
С 2 10 км 10/10 540 м
[St]
+21.0 +18.5 86 +26 +26 душно 1014.9 1012.0
С 4 10 км 10/10 600 м
[St]
+21.0 +18.3 85 +26 +26 душно 1014.6 1011.7
СВ 3 10 км 9/9 600 м
[St]
+21.9 +18.1 79 +27 +28 душно 1013.6 1010.6
С 2 10 км 3/3 600 м
[St Ci fib]
+24.3 +18.2 69 +29 +36 душно 1012.4 1009.4
СВ 3 10 км 3/3 660 м
[St Ci fib]
+25.1 +18.4 66 +30 +34 душно 1012.5 1009.6
С 2 10 км 1/1 660 м
[Cu hum Ci fib]
+25.4 +18.4 65 +30 +34 душно 1011.3 1008.4
СВ 3 10 км 3/1 750 м
[Cu hum Ci fib]
+25.1 +18.4 66 +30 +31 душно 1011.0 1008.1
С 2 10 км 1/0
[Ci fib]
+24.0 +18.2 70 +28 +29 душно 1010.6 1007.7
штиль 0 10 км 1/1 600 м
[St]
+23.3 +19.1 77 +30 +30 очень душно 1010.8 1007.8
штиль 0 10 км 1/1 600 м
[Sc]
+22.1 +19.5 85 +28 +28 душно 1011.4 1008.5
СЗ 2 10 км 5/5 600 м
[Sc]
+22.4 +19.0 81 +28 +28 душно 1012.2 1009.3 +20.8 +25.4
штиль 0 10 км 3/3 600 м
[Sc]
+20.7 +18.8 89 +25 +25 комфорт 1012.4 1009.4
штиль 0 10 км 1/1 600 м
[Sc]
+20.0 +18.4 91 +23 +23 комфорт 1012.2 1009.3
штиль 0 10 км 1/1 900 м
[Sc]
+19.3 +18.0 92 +21 +21 комфорт 1012.3 1009.4
штиль 0 10 км ясно +18.9 +17.9 94 +20 +20 1012.5 1009.6
штиль 0 10 км 1/1 1200 м
[Sc]
+18.5 +17.4 93 +19 +19 1013.2 1010.2
штиль 0 9000 м дымка 1/1 1200 м
[Sc]
+18.5 +17.7 95 +19 +19 1013.2 1010.2
штиль 0 9000 м дымка 5/5 1200 м
[Sc]
+18.9 +18.1 95 +20 +20 1012.9 1010.0
штиль 0 9000 м дымка 8/8 1200 м
[Sc]
+19.1 +18.3 95 +21 +21 комфорт 1012.9 1010.0
штиль 0 9000 м дымка 8/8 1200 м
[Sc]
+19.3 +18.3 94 +21 +21 комфорт 1013.4 1010.5
штиль 0 10 км 8/8 1200 м
[Sc]
+19.3 +18.3 94 +21 +21 комфорт 1014.1 1011.2
штиль 0 10 км 1/0
[Ac und]
+19.3 +18.5 95 +21 +22 комфорт 1014.7 1011.8
З 1 10 км ясно +22.7 +20.1 85 +29 +32 очень душно 1015.4 1012.5 +17.7 +22.7
З 1 10 км 3/0
[Ci sp]
+25.3 +19.1 69 +30 +36 душно 1015.6 1012.8
ЮЗ 3 10 км 3/3 600 м
[Sc]
+25.9 +18.8 65 +31 +36 очень душно 1015.5 1012.6
ЮЗ 2 10 км 5/5 600 м
[Sc]
+26.6 +18.7 62 +32 +37 очень душно 1015.2 1012.2
З 1 10 км 6/6 750 м
[Cu Sc]
+27.6 +18.1 56 +32 +38 очень душно 1014.6 1011.7
Ю 2 10 км 6/6 750 м
[Cu Sc]
+26.7 +18.0 59 +31 +36 душно 1014.0 1011.0
ЮЗ 2 10 км 5/4 900 м
[Cu Sc Ac trans]
+27.4 +17.7 55 +32 +36 очень душно 1013.7 1010.8
Ю 4 10 км 4/4 900 м
[Sc]
+26.6 +18.6 62 +32 +33 очень душно 1013.9 1011.0
Ю 1 10 км 8/8 600 м
[Cu Sc]
+26.1 +18.0 61 +31 +31 очень душно 1013.9 1011.0
Ю 4 10 км 9/9 450 м
[St]
+23.3 +17.6 70 +29 +29 душно 1014.6 1011.7
Ю 4 10 км 9/9 450 м
[St]
+22.2 +17.2 73 +27 +27 душно 1014.7 1011.8
Ю 3 10 км 10/10 450 м
[St]
+20.4 +16.5 78 +24 +24 комфорт 1015.8 1012.8
ЮВ 4 10 км 10/10 450 м
[St]
+19.7 +15.4 76 +22 +22 комфорт 1016.2 1013.3 +19.7 +28.5
ЮВ 4 10 км 10/10 450 м
[St]
+19.0 +14.6 76 +20 +20 1017.0 1014.1
В 3 10 км 10/10 450 м
[St]
+18.4 +13.2 72 +19 +19 1017.3 1014.4
В 2 10 км 10/10 450 м
[St]
+17.2 +12.8 75 +18 +18 1017.6 1014.6
ЮВ 5 10 км 10/10 450 м
[St]
+16.4 +11.1 71 +16 +16 1018.3 1015.4
ЮВ 4 10 км 10/10 450 м
[St]
+15.8 +10.4 70 +15 +15 1018.4 1015.6
ЮВ 4 10 км 10/10 450 м
[St]
+15.1 +9.8 71 +14 +14 1018.6 1015.7
ЮВ 3 10 км 10/10 450 м
[St]
+14.9 +9.5 70 +14 +14 1018.7 1015.7
Ю 3 10 км 10/10 450 м
[St]
+14.5 +9.1 70 +14 +14 1019.3 1016.4
ЮВ 3 10 км 10/10 450 м
[St]
+14.4 +8.7 69 +14 +14 1019.5 1016.5
ЮВ 6 10 км 10/10 450 м
[St]
+13.9 +7.7 66 +12 +12 1020.5 1017.6
ЮВ 3 10 км 8/6 750 м
[St Ac trans]
+13.5 +6.7 63 +13 +13 1021.0 1018.0
ЮВ 5 10 км 3/0
[Ac trans]
+14.6 +6.4 58 +13 +14 1021.7 1018.8 +13.4 +19.7
В 5 10 км 3/0
[Ac trans]
+16.6 +7.0 53 +16 +18 1022.2 1019.2
Ю 5 10 км 4/0
[Ac trans Ci]
+17.3 +7.0 51 +17 +20 1022.2 1019.2
ЮВ 2 10 км 6/1 750 м
[Sc Ac und Ci]
+17.4 +7.1 51 +18 +25 1022.0 1019.0
ЮВ 5 10 км 5/0
[Ac und Ci]
+18.4 +6.7 46 +18 +23 1021.5 1018.5
ЮВ 2 10 км 4/0
[Ac trans Ci]
+19.5 +7.3 45 +21 +31 комфорт 1021.1 1018.1
ЮВ 5 10 км 5/1 750 м
[Cu hum Ac trans Ci]
+19.8 +7.4 45 +21 +24 комфорт 1021.2 1018.2
ЮВ 4 10 км 6/3 750 м
[Cu hum Ac und Ci]
+18.9 +7.2 47 +19 +21 1021.2 1018.2
ЮВ 3 10 км 8/3 750 м
[Sc Ac trans Ci]
+18.2 +7.0 48 +19 +19 1021.9 1018.9
ЮВ 5 10 км 8/3 750 м
[Sc Ac und Ci]
+17.4 +6.9 50 +17 +17 1022.6 1019.6
ЮВ 2 10 км 8/1 600 м
[St Ac und Ci]
+16.6 +6.5 51 +17 +17 1022.9 1020.0
В 4 10 км 9/1 1050 м
[Cu hum Ac und]
+16.2 +6.8 54 +16 +16 1023.3 1020.4
ЮВ 4 10 км 9/0
[Ac und]
+15.8 +7.0 56 +15 +15 1023.6 1020.6 +14.6 +19.9
ЮВ 4 10 км 9/0
[Ac As]
+15.8 +7.5 58 +15 +15 1024.0 1021.0
ЮВ 4 10 км 9/0
[Ac As Cs]
+15.6 +6.2 54 +15 +15 1024.5 1021.6
В 3 9000 м слаб. дождь 9/0
[Ac As]
+15.2 +6.7 57 +15 +15 1024.6 1021.6
ЮВ 4 9000 м слаб. дождь 10/0
[Ac As]
+15.2 +5.2 51 +14 +14 1024.6 1021.6
Ю 4 10 км в посл. час дождь 3/0
[Ac trans]
+14.4 +5.4 55 +13 +13 1024.3 1021.3
Ю 4 10 км {дождь} 3/0
[Ac trans]
+14.1 +6.0 58 +13 +13 1024.2 1021.2 0.0
Ю 5 10 км 4/0
[Ac trans]
+13.5 +5.8 60 +12 +12 1024.5 1021.6
Ю 3 10 км 1/1 900 м
[Sc]
+12.7 +5.5 62 +11 +11 1024.3 1021.3
Ю 3 10 км 1/1 900 м
[Sc]
+12.4 +5.6 63 +11 +11 1024.4 1021.4
Ю 4 10 км 1/0
[Ci fib]
+12.3 +5.7 64 +11 +11 1024.6 1021.6
ЮВ 3 10 км 3/0
[Ac As]
+12.4 +5.6 63 +11 +12 1025.1 1022.1
Ю 4 10 км 8/0
[Ac trans]
+13.5 +5.8 60 +12 +13 1025.9 1022.9 +11.6 +15.8 0.0
ЮВ 4 10 км 4/0
[Ac und]
+15.4 +6.7 56 +14 +17 1026.4 1023.4
ЮВ 4 10 км 4/0
[Ac und Cc]
+18.1 +8.3 53 +18 +23 1026.3 1023.3
В 3 10 км 9/4 600 м
[Sc Ac und]
+18.8 +8.5 51 +19 +22 1026.2 1023.2
ЮВ 6 10 км 8/8 750 м
[Sc Ac As]
+19.4 +10.2 55 +20 +21 1025.9 1022.9
В 2 10 км 10/10 600 м
[Sc]
+17.7 +11.1 65 +18 +18 1025.3 1022.4
ЮВ 2 10 км в посл. час морось 9/9 600 м
[Sc]
+17.5 +10.0 61 +18 +19 1024.8 1021.8 0.0
ЮВ 5 10 км {морось} 8/6 750 м
[Sc Ac As Cs]
+17.7 +9.6 59 +17 +18 1024.6 1021.6
ЮВ 4 10 км 6/4 750 м
[Sc Ac trans]
+17.5 +9.6 60 +17 +18 1024.5 1021.6
ЮВ 5 10 км 8/4 750 м
[Sc Ac As Cs]
+16.9 +9.1 60 +16 +16 1024.6 1021.6
ЮВ 6 10 км 8/4 600 м
[Sc Ac As]
+16.0 +8.6 61 +15 +15 1025.1 1022.1
ЮВ 4 10 км 8/4 600 м
[Sc Ac As]
+15.4 +7.2 58 +14 +14 1025.1 1022.1
В 4 10 км 6/4 600 м
[Sc Ac As]
+15.2 +7.4 60 +14 +14 1025.5 1022.5 +13.5 +20.0
В 2 10 км 4/0
[Ac trans]
+14.8 +9.0 68 +15 +15 1025.8 1022.8
ЮВ 3 10 км 4/1 600 м
[Sc Ac trans]
+14.6 +9.0 69 +14 +14 1025.9 1022.9
ЮВ 2 10 км 4/1 600 м
[Sc Ac trans]
+14.6 +9.8 73 +15 +15 1025.8 1022.8
ЮВ 3 10 км 8/5 600 м
[Sc Ac trans]
+1.4 +9.8 100 -3 -3 1025.4 1022.4
ЮВ 1 10 км 8/5 600 м
[Sc Ac trans]
+14.4 +10.2 76 +15 +15 1025.0 1022.0
В 2 10 км 8/4 600 м
[Sc Ac As]
+15.7 +11.1 74 +16 +16 1024.5 1021.6
СВ 3 10 км 6/4 600 м
[Sc Ac As]
+16.2 +10.2 68 +16 +16 1024.3 1021.3
В 2 10 км 6/4 600 м
[Sc Ac As]
+16.4 +10.0 66 +17 +17 1024.5 1021.6
СВ 3 10 км 5/3 600 м
[Sc Ac As]
+17.1 +10.2 64 +17 +17 1024.7 1021.7
В 3 10 км 6/0
[Ac trans Ci fib]
+16.5 +10.8 69 +16 +17 1024.5 1021.6
В 4 10 км 8/0
[Ac trans Cs]
+17.9 +10.7 63 +18 +19 1024.6 1021.6 +14.3 +17.9 0.0
В 4 10 км 8/1 900 м
[Sc Ac cuf Cc]
+19.0 +11.4 61 +20 +22 1024.4 1021.4
В 5 10 км 10/1 750 м
[Sc Ac As Cs]
+18.8 +12.4 66 +19 +22 1024.1 1021.2
В 4 10 км 10/1 900 м
[Cu hum Ac As Cs]
+19.8 +12.2 62 +21 +25 комфорт 1024.1 1021.2
В 6 10 км 10/1 900 м
[Cu hum Ac As Cs]
+19.4 +12.1 63 +20 +22 1023.0 1020.0
В 6 10 км 10/0
[Ac As Cs]
+20.3 +12.4 60 +22 +24 комфорт 1022.3 1019.3
В 5 10 км 10/0
[Ac As Cs]
+19.9 +11.9 60 +21 +23 комфорт 1022.0 1019.0
В 3 10 км 10/0
[Ac As]
+19.6 +12.0 61 +21 +23 комфорт 1022.0 1019.0
В 4 10 км в посл. час дождь 10/1 750 м
[Frnb As op]
+18.8 +13.0 69 +20 +20 1021.7 1018.8
ЮВ 4 10 км {дождь} 10/0
[Ac As]
+18.7 +12.5 67 +19 +19 1021.5 1018.5
В 4 10 км слаб. дождь 10/0
[Ac As]
+18.2 +14.1 77 +18 +18 1019.8 1016.8
ЮВ 5 9000 м слаб. дождь 10/4 450 м
[Sc As op]
+18.1 +14.5 79 +18 +18 1020.1 1017.2
В 2 7000 м слаб. дождь 10/5 450 м
[Sc As op]
+17.8 +15.3 85 +18 +18 1021.2 1018.2 +17.8 +20.3 0.5
В 2 5000 м слаб. дождь 10/8 450 м
[Sc As op]
+17.8 +16.1 90 +18 +18 1021.2 1018.2
В 4 5000 м слаб. дождь 10/8 450 м
[Sc As op]
+17.6 +15.9 90 +17 +17 1020.9 1018.0
В 2 7000 м слаб. дождь 10/5 450 м
[Sc As op]
+17.8 +15.6 87 +19 +19 1021.4 1018.4
ЮВ 5 7000 м слаб. дождь 10/8 450 м
[Sc As op]
+17.2 +15.0 87 +17 +17 1021.5 1018.5
В 4 7000 м слаб. дождь 10/8 450 м
[Sc As op]
+17.0 +14.2 84 +17 +17 1020.7 1017.7
ЮВ 5 9000 м слаб. дождь 10/8 450 м
[Sc As op]
+17.3 +13.8 80 +17 +17 1020.2 1017.2 6
ЮВ 5 7000 м слаб. дождь 10/8 450 м
[Sc As op]
+17.8 +14.9 83 +17 +17 1019.5 1016.5
В 5 6000 м слаб. дождь 10/8 450 м
[Sc As op]
+17.4 +15.0 86 +17 +17 1019.5 1016.5
Местоположение метеостанции Буэнос-Айрес (Аргентина): широта -34.58 долгота -58.48 высота над уровнем моря 25 м.
В архиве по умолчанию представлена погода в Буэнос-Айресе за последнюю неделю. Архивные данные за месяц целиком и за предыдущие месяцы, начиная с января 2011 года, Вы можете получить, выбрав интересующий диапазон дат из раскрывающегося списка и нажав кнопку "Найти!".
*Определитесь, кто Вы:
Внимание! Время в таблицах - всемирное. Для получения местного времени необходимо прибавить поправку, которая равна -3 ч.
Некоторые строки с данными для отдельных станций могут быть выделены курсивом. Это означает, что фактические данные отсутствуют по различным причинам, а приведенные значения являются расчетными модельными данными для данного пункта наблюдений.
Смотрите также архив погоды в соседних городах и на ближайших метеорологических станциях:
Партнеры нашего сайта:      
Пояснения к столбцам:
  • Ветер - указаны скорость ветра в м/с - средняя за 10 мин, порывы в срок и между сроками (в фигурных скобках) и направление, откуда дует ветер: С - северный,
  • СВ - северо-восточный, В - восточный, ЮВ - юго-восточный, Ю - южный, ЮЗ - юго-западный, З - западный, СЗ - северо-западный.
  • Видимость - горизонтальная дальность видимости в метрах или километрах. При видимости от 1 до 10 км при отсутствии осадков обычно наблюдается дымка, при ухудшении видимости до 1 км и менее - туман. В сухую погоду видимость может ухудшаться дымом, пылью или мглою.
  • Явления - указаны атмосферные явления, наблюдавшиеся в срок или в последний час перед сроком; фигурными скобками обозначены явления, наблюдавшиеся между сроками (за 1-3 часа до срока); квадратными скобками обозначены град или гололедные отложения с указанием их диаметра в мм.
  • Облачность - указаны через наклонную черту общая и нижняя облачность в баллах и высота нижней границы облаков в метрах; квадратными скобками обозначены формы облаков: Ci - перистые, Cs - перисто-слоистые, Cc - перисто-кучевые, Ac - высококучевые, As - высокослоистые, Sc - слоисто-кучевые, Ns - слоисто-дождевые, Cu - кучевые, Cb - кучево-дождевые. Подробнее классификацию облаков см. в Атласе облаков (PDF).
  • T - Температура воздуха - температура, измеренная на высоте 2 м над землей.
  • Td - Температура точки росы - температура, при понижении до которой содержащийся в воздухе водяной пар достигнет насыщения.
  • f - Относительная влажность воздуха - влажноcть воздуха, измеренная на высоте 2 м над землей.
  • Te - Эффективная температура - температура, которую ощущает одетый по сезону человек в тени. Характеристика душности погоды. При расчете учитывается влияние влажности воздуха и скорости ветра на теплоощущения человека.
  • Tes - Эффективная температура на солнце - температура, которую ощущает человек, с поправкой на солнечный нагрев. Характеристика знойности погоды. Зависит от высоты солнца над горизонтом, облачности и скорости ветра. Ночью, в пасмурную погоду, а также при ветре 12 м/с и более поправка равна нулю.
  • P - Атмосферное давление - приведенное к уровню моря атмосферное давление.
  • Po - Атмосферное давление - измеренное на уровне метеостанции атмосферное давление.
  • Tmin - Минимальная температура - минимум температуры воздуха на высоте 2 м над землей.
  • Tmax - Максимальная температура - максимум температуры воздуха на высоте 2 м над землей.
  • R - Количество осадков - Количество выпавших осадков за период времени, мм. При наведении курсора мыши на число - период времени, за который выпало указанное количество осадков.
  • R24 - Количество осадков - Количество выпавших осадков за 24 часа, мм.
  • S - Снежный покров - Высота снежного покрова, см. При наведении курсора мыши на число - состояние снежного покрова и степень покрытия местности в баллах.